Theta_e
293 287 286 285 288 290 290 289 291 291 290 287 284 282 284 283 285 287 288 290 287 286 287 289 290 289 290 291 293 294 294 294 295 295 294 294 295 296 296 296 297 297 297 301 301 298 296 296 295 295 295 295 295 295 295 295 295 294 294 293 293 294 294 294 293 292 291 290 289 289 290 290 290 290 289 289 289 289 289 288 288 288 288 288 287 287
291 286 285 290 291 291 291 291 290 288 286 286 286 283 285 284 285 289 290 291 288 286 287 288 289 289 291 292 293 293 293 293 294 295 296 296 296 296 297 297 297 298 299 299 299 299 294 294 293 293 293 294 293 294 294 295 295 295 294 293 293 293 293 294 293 293 292 292 292 291 291 291 291 290 289 289 288 289 289 288 288 288 288 287 287 287
286 285 288 291 292 290 288 288 287 287 287 285 285 285 284 285 287 289 289 291 291 286 287 288 287 289 291 292 292 292 293 295 296 296 297 297 297 297 297 297 297 297 297 298 298 298 295 293 292 292 293 293 295 295 294 295 295 294 293 293 293 293 293 293 293 293 292 292 292 292 291 292 290 290 290 289 289 289 288 288 287 288 287 287 286 287
284 285 289 291 290 288 288 287 286 286 284 283 283 280 283 286 284 285 284 287 287 288 282 282 286 288 290 292 292 293 294 295 296 296 296 297 296 296 297 298 298 297 297 297 298 298 294 292 292 291 291 293 293 293 293 294 294 294 293 293 293 293 293 293 293 293 293 292 291 289 290 289 288 287 288 288 287 287 287 287 287 287 287 287 287 286
288 286 289 291 289 288 288 288 285 284 287 286 286 285 285 285 287 286 286 284 285 286 284 286 286 288 289 289 289 291 293 292 293 294 295 295 296 297 298 297 297 296 297 298 298 298 297 290 290 291 292 292 292 293 294 294 294 294 293 293 293 293 293 293 293 293 292 291 289 288 288 288 287 287 286 285 284 287 287 287 286 287 287 287 287 286
288 288 287 288 287 287 286 285 285 286 285 287 287 287 288 289 287 286 286 284 280 280 282 284 281 285 284 287 287 290 288 288 291 291 292 294 295 295 294 295 296 296 297 297 297 298 298 294 290 289 289 290 292 293 294 294 294 294 293 292 292 292 292 292 292 293 292 291 290 288 287 287 286 285 285 286 286 285 286 287 287 286 287 287 286 286
287 288 289 289 287 286 285 285 284 287 286 285 283 288 289 288 286 285 284 283 278 277 284 283 281 282 282 284 285 286 286 289 290 290 292 294 294 294 295 296 296 296 296 296 296 297 296 294 290 289 289 290 291 293 294 293 293 293 292 292 292 292 292 292 292 292 292 290 290 290 290 290 289 288 287 289 289 288 288 288 287 287 286 286 286 285
286 286 286 287 286 285 283 283 287 287 286 284 283 286 285 284 283 284 283 283 282 280 283 282 283 280 282 284 286 288 290 290 290 292 292 294 294 295 296 296 296 296 295 296 296 296 295 291 292 292 291 291 292 293 292 292 292 292 291 291 291 292 292 292 292 291 292 291 290 290 290 290 289 290 289 288 289 288 287 287 286 286 286 286 286 285
287 285 284 284 284 284 284 289 287 288 287 284 285 284 284 284 283 282 283 280 279 279 281 281 283 279 280 285 287 288 286 287 289 291 292 293 294 295 296 296 295 296 296 295 295 296 295 291 290 291 291 292 291 291 291 291 291 291 291 291 291 291 291 291 291 291 291 291 290 290 290 289 290 290 289 288 288 287 287 286 285 285 285 285 285 285
285 288 285 287 284 283 287 286 287 289 286 285 283 283 282 281 281 282 281 282 280 276 280 279 282 277 281 288 284 281 284 286 287 289 291 292 293 294 294 294 295 294 294 295 293 292 292 290 290 290 290 289 290 290 290 290 290 290 290 290 290 290 291 291 291 291 291 291 291 290 290 289 289 288 285 286 285 285 286 286 285 285 284 285 284 284
286 289 288 286 285 288 285 284 284 288 288 285 286 288 281 281 279 278 278 280 278 277 280 281 282 283 279 283 283 283 285 285 287 287 289 290 291 293 293 293 295 295 295 294 292 289 289 288 288 287 288 288 287 287 289 289 289 289 289 289 289 290 290 290 290 290 290 290 290 290 290 289 289 287 285 285 284 284 284 285 284 284 284 284 284 283
287 287 287 286 290 286 286 285 284 283 285 287 285 283 282 283 277 276 270 277 274 275 282 282 283 282 276 281 281 282 282 282 286 286 290 291 292 293 294 294 294 293 292 291 290 289 288 287 286 285 286 285 286 286 288 288 289 289 289 289 289 289 289 290 290 290 290 290 290 290 290 289 289 288 286 286 285 285 285 285 284 284 283 283 284 283
281 284 287 289 290 290 286 286 281 283 286 286 283 283 279 273 274 269 272 271 271 276 279 280 282 279 281 287 286 288 289 287 286 288 291 292 294 293 293 293 293 291 288 289 289 289 288 287 287 285 285 285 284 287 287 288 288 288 288 288 288 288 288 289 289 290 290 290 290 290 289 289 289 288 287 287 286 285 286 285 285 283 284 283 283 283
284 281 283 285 288 289 287 284 281 283 282 283 282 278 276 273 270 271 265 265 268 276 278 280 281 281 286 284 285 291 294 295 293 290 290 290 290 291 292 292 292 292 290 290 290 288 288 288 285 285 285 285 285 285 286 286 287 288 288 288 288 288 288 288 289 289 289 289 289 289 289 289 289 288 287 287 286 286 286 286 286 285 285 284 284 284
278 283 283 284 284 286 289 289 287 286 282 285 283 284 282 281 274 272 271 277 278 280 276 277 276 274 275 281 283 287 288 287 287 286 286 287 288 289 289 289 289 289 289 286 288 288 287 287 285 285 285 284 284 285 285 285 287 287 288 288 288 288 287 288 288 289 289 289 289 289 289 289 288 288 287 287 287 286 286 286 286 285 285 285 285 285
283 283 284 288 287 288 287 291 289 282 282 282 282 282 277 282 283 280 283 282 281 278 273 274 277 277 284 285 286 285 284 288 285 285 285 285 285 285 286 288 289 289 289 287 285 286 285 284 284 284 283 283 283 283 284 285 286 287 287 287 288 288 288 288 288 288 289 289 289 288 288 288 288 288 287 287 287 286 286 286 286 286 285 285 285 285
285 282 287 289 286 287 286 289 288 288 277 281 284 280 285 285 285 281 281 284 281 277 278 284 279 282 284 287 290 286 284 286 283 285 285 285 286 286 289 287 286 287 287 287 286 285 285 283 282 283 283 283 282 283 284 285 286 287 287 287 287 287 287 287 288 288 288 288 288 288 288 288 287 287 287 287 286 286 286 285 285 286 285 285 284 284
285 286 291 287 287 287 285 287 288 287 288 283 280 285 287 285 284 282 275 276 277 276 278 284 280 282 281 279 282 284 283 285 283 284 285 285 285 288 288 288 287 287 286 285 283 282 282 282 282 282 282 282 283 283 283 285 285 286 287 286 286 286 286 287 287 287 288 287 287 287 287 288 288 287 287 287 286 286 285 285 285 284 283 284 284 284
289 282 287 291 288 287 286 288 287 289 287 289 287 289 286 280 279 282 275 274 275 275 277 279 283 283 284 285 287 287 288 290 287 283 284 288 289 288 288 290 288 286 287 289 288 288 286 283 283 282 282 282 282 282 282 283 284 284 284 285 286 287 287 287 287 287 287 287 288 288 287 287 287 287 287 287 286 285 284 284 284 284 284 283 283 283
287 282 284 291 290 287 284 286 282 284 286 287 287 285 286 284 283 280 280 276 280 277 279 278 283 280 287 287 287 287 287 289 287 283 286 289 289 286 287 287 288 287 287 287 286 286 285 285 284 284 283 282 283 283 283 283 283 284 284 284 285 285 284 284 285 286 286 286 287 287 286 286 287 287 286 286 285 284 284 284 284 283 283 283 283 282
284 287 279 288 289 287 282 285 285 286 283 284 283 281 283 282 283 283 283 281 280 278 278 278 277 283 288 290 289 290 288 287 285 286 288 290 291 288 285 287 287 286 286 287 287 287 286 286 284 284 283 283 282 282 283 283 284 285 285 285 285 285 285 285 285 285 286 286 286 286 286 286 286 286 286 285 284 284 284 284 283 283 283 282 282 282
286 285 283 285 286 285 287 286 285 284 284 282 284 282 285 282 281 280 278 286 281 281 278 278 277 284 290 295 295 293 286 283 283 286 290 291 291 290 289 286 286 286 286 286 287 286 287 286 285 284 284 284 283 283 283 284 283 283 285 286 286 284 284 285 285 286 286 286 286 285 286 286 286 286 285 284 284 284 283 283 283 283 282 282 282 282
292 286 285 282 285 287 290 292 289 287 286 287 288 285 288 286 284 281 277 280 284 283 284 283 280 281 293 293 296 294 289 288 289 291 292 293 291 289 290 289 288 286 287 289 289 289 287 286 285 286 286 286 285 285 284 284 284 285 285 285 285 285 285 286 286 287 286 286 285 285 286 286 285 285 285 284 284 284 284 283 283 282 282 282 281 281
294 285 281 285 287 289 292 293 293 290 287 286 286 287 286 285 286 285 284 285 282 282 282 281 279 282 293 295 295 295 294 294 294 292 293 292 291 291 291 291 291 291 291 289 288 289 288 286 286 286 286 287 286 286 286 285 285 285 285 286 286 285 286 285 286 286 285 285 285 285 285 285 285 284 284 284 284 284 284 284 283 282 282 282 281 281
286 285 287 281 282 283 284 287 287 290 287 284 286 288 287 288 288 288 287 286 281 282 283 280 275 281 289 290 292 293 293 293 294 295 294 292 290 289 289 290 291 290 290 291 292 292 290 288 288 289 288 288 289 289 288 287 286 285 285 284 285 285 286 286 286 285 285 286 286 285 285 284 284 284 283 284 284 284 284 283 282 282 282 281 281 281
288 286 284 279 276 275 275 276 278 281 284 285 284 287 287 286 285 284 281 283 279 283 284 281 280 287 292 292 292 292 293 293 295 295 295 295 293 293 290 288 288 289 290 290 290 290 290 290 291 292 292 292 291 290 290 289 287 286 285 285 285 285 286 286 286 286 286 285 285 285 284 284 284 284 284 284 284 284 284 284 283 281 282 282 281 280
285 284 285 285 282 280 282 285 287 288 284 283 283 282 284 286 287 286 285 282 280 283 282 284 285 285 287 290 291 292 294 293 293 294 294 294 293 291 289 288 288 288 289 289 289 289 289 289 289 290 290 290 291 290 290 290 289 288 287 286 285 285 286 286 285 286 286 285 285 285 284 284 284 285 285 285 285 285 284 284 283 282 282 282 281 280
283 284 286 287 286 286 287 287 289 289 285 286 286 286 287 285 284 283 281 280 286 282 278 286 287 284 286 289 290 291 292 292 293 291 289 286 285 286 287 287 288 287 287 287 287 287 287 287 288 288 289 289 289 290 290 291 290 289 288 288 287 285 285 285 285 285 285 286 285 285 285 285 285 285 285 285 284 284 284 284 283 282 282 281 281 280
284 283 286 287 285 288 288 288 288 288 287 286 286 286 285 287 286 284 285 286 286 281 279 285 286 284 286 288 289 287 284 285 284 284 284 284 285 285 285 285 284 285 285 286 286 286 287 287 287 288 288 288 289 289 289 290 290 291 291 289 288 286 285 285 284 285 285 285 285 285 285 285 285 285 285 284 283 283 283 283 282 282 281 281 281 281
284 282 285 285 283 285 286 287 288 286 286 286 286 287 287 287 286 287 286 288 287 285 286 286 285 285 287 279 281 282 284 285 285 284 284 283 282 283 283 283 283 283 284 284 285 285 286 287 287 287 288 288 288 288 289 289 289 290 289 290 291 290 288 283 284 285 285 285 285 286 285 285 285 284 284 283 283 283 283 282 281 281 280 280 280 280
285 282 287 284 282 282 284 285 285 285 285 284 286 287 287 287 287 287 287 287 286 286 287 286 285 285 284 282 282 282 282 283 284 281 281 282 282 282 281 281 282 282 283 284 284 285 285 286 287 287 287 288 288 288 289 289 289 289 289 289 290 290 290 284 285 285 285 285 286 286 285 284 284 284 283 283 283 282 282 281 280 280 280 279 279 280
284 280 284 282 279 279 283 282 283 284 284 283 283 284 284 285 283 285 285 287 285 284 285 284 282 277 277 281 280 281 280 279 281 281 280 281 282 282 281 281 281 282 282 282 283 284 284 285 286 286 287 287 288 288 288 288 288 288 288 288 288 289 290 288 286 286 286 286 286 285 285 284 283 283 283 282 282 282 281 281 280 279 279 279 279 279
280 280 279 279 276 276 281 282 281 281 280 277 279 282 284 285 286 287 287 284 280 282 280 276 273 277 278 279 278 278 278 278 279 282 279 280 281 281 281 281 281 282 282 282 283 283 284 284 285 286 287 287 288 288 288 288 288 287 287 287 287 288 288 288 287 286 285 286 285 284 284 283 283 283 282 281 281 281 280 280 279 279 279 279 279 279
280 279 278 282 275 275 279 279 279 275 269 271 282 278 281 277 277 275 274 275 278 280 277 277 276 279 279 278 277 278 278 276 278 283 282 281 280 280 282 282 282 282 282 282 283 283 284 285 285 286 286 287 288 288 288 288 287 287 287 287 287 286 286 286 286 285 285 284 284 283 282 282 282 282 282 280 280 280 280 279 279 279 279 279 278 278
279 278 276 278 274 272 275 275 271 266 268 275 277 279 278 279 278 274 275 276 277 279 278 277 277 277 278 278 279 279 279 280 281 283 282 282 282 281 281 282 282 282 282 282 283 283 284 284 285 285 285 286 287 287 287 287 288 287 286 286 286 286 284 284 283 284 284 283 282 281 280 281 281 281 280 279 279 279 279 279 279 278 278 278 278 278
277 276 275 273 273 272 270 269 264 265 276 278 278 278 279 277 278 277 275 275 276 278 277 276 277 277 279 278 279 280 279 280 281 282 282 282 282 281 282 282 282 282 282 282 283 284 284 284 285 285 285 286 286 286 286 286 287 286 285 286 285 285 284 283 283 283 282 281 282 280 279 278 278 278 277 278 277 278 279 278 278 278 278 278 277 278
280 279 277 273 278 270 272 272 271 278 276 276 271 275 276 273 273 274 270 275 276 278 277 276 277 277 278 278 279 279 279 279 278 279 282 282 282 283 283 283 283 283 283 283 284 284 285 285 286 286 286 286 286 286 286 287 286 285 285 285 285 284 283 282 283 283 282 281 281 280 278 277 277 277 277 277 277 277 278 278 278 278 278 277 277 277
283 279 280 276 273 279 273 271 272 272 270 272 272 275 279 280 280 279 276 273 277 277 279 276 276 276 277 278 277 278 278 275 273 275 279 281 282 282 284 284 283 283 283 283 284 285 285 285 286 286 286 286 286 286 287 287 286 285 284 284 284 283 282 282 282 281 280 280 280 279 278 279 278 279 278 278 277 278 278 278 278 278 277 277 276 276
280 282 279 275 272 273 270 268 268 268 270 271 269 274 278 279 278 278 275 269 277 276 279 277 275 277 277 276 276 278 274 270 271 275 278 280 281 282 282 282 282 282 283 283 283 284 284 285 285 285 285 285 284 286 286 286 286 285 284 285 284 282 282 282 281 280 278 278 278 277 277 278 279 280 278 278 278 277 277 277 277 277 276 277 277 276
272 271 271 271 270 270 269 267 266 270 270 274 273 276 278 277 278 278 267 268 275 275 279 278 276 277 277 277 277 275 273 270 271 275 279 281 281 282 281 280 280 281 282 282 284 284 284 284 284 283 283 283 284 285 285 286 286 285 284 284 284 283 283 281 280 278 277 275 274 273 275 277 278 279 278 278 277 277 277 276 275 275 275 275 275 275
266 265 267 267 267 268 271 267 269 270 274 270 270 274 275 277 274 267 264 270 274 274 277 278 276 277 278 275 275 272 275 277 278 279 280 281 280 280 281 281 280 281 280 281 282 284 282 282 282 282 282 283 283 284 285 285 284 283 283 283 283 284 284 280 277 276 275 274 273 273 274 274 276 276 276 276 276 276 275 275 275 274 273 272 272 272
267 267 266 269 265 266 266 265 266 269 272 269 272 272 275 273 264 265 268 273 272 274 274 275 275 277 277 276 276 275 277 278 279 280 279 279 279 279 279 279 280 280 281 281 282 281 281 281 281 281 281 281 282 282 283 283 281 281 282 282 282 284 283 279 276 275 274 275 274 273 273 273 275 275 275 274 274 274 273 273 273 273 272 271 271 271
266 265 260 262 263 264 264 262 262 260 267 271 273 274 273 266 266 274 272 273 275 275 274 274 275 275 275 275 276 276 276 276 277 277 278 278 278 278 278 278 278 278 278 279 279 279 280 279 278 278 278 279 279 280 280 279 278 279 281 281 282 284 282 278 276 276 275 274 274 273 273 273 274 274 274 274 274 274 273 272 272 272 272 271 270 270
268 261 261 263 267 263 262 261 260 264 270 275 272 267 271 274 276 275 273 274 275 277 276 275 275 276 275 274 274 274 275 275 275 276 276 276 276 276 276 276 276 276 277 278 278 278 279 277 277 276 276 276 277 277 277 277 276 277 278 278 281 283 282 281 278 276 275 274 273 273 273 273 273 273 273 273 273 273 272 271 271 271 271 271 270 270
269 266 266 263 266 266 262 268 272 274 275 277 276 275 276 276 275 274 276 276 276 275 277 275 275 275 275 274 274 274 274 275 274 275 274 274 274 274 274 274 274 274 275 275 276 277 276 275 274 274 274 274 275 275 275 276 275 275 275 276 278 279 281 282 279 277 276 275 273 273 273 272 273 272 272 273 273 272 271 270 270 270 270 270 270 270
272 271 271 269 268 273 273 274 276 275 276 276 277 277 275 275 275 276 276 275 276 277 276 275 275 275 274 274 273 273 274 274 274 274 273 273 273 273 273 273 272 273 273 274 274 274 274 273 273 272 272 272 273 273 274 274 274 273 273 274 275 278 282 280 279 278 278 277 274 273 272 272 272 272 272 272 273 272 272 270 270 270 270 270 270 270
270 273 269 269 272 267 263 273 272 274 275 276 276 276 275 276 276 276 276 276 277 276 274 275 275 275 274 274 273 273 273 273 272 272 272 272 272 272 271 271 271 271 271 271 271 272 270 270 270 270 270 270 271 271 272 272 272 272 272 273 274 278 278 276 276 277 277 277 276 274 272 272 272 272 272 272 272 272 271 271 270 270 269 269 269 269
268 275 270 271 271 269 268 273 273 274 275 275 275 275 275 276 276 276 277 277 276 274 273 273 273 273 273 271 272 271 271 271 271 270 270 271 270 270 270 270 269 269 270 270 270 270 269 268 268 268 268 268 269 270 270 270 270 270 271 272 274 275 274 273 273 274 276 277 277 274 272 272 271 271 271 271 272 271 271 271 271 270 269 269 269 269
272 274 262 268 269 271 273 274 274 275 275 275 276 276 276 276 276 275 276 275 273 273 273 273 273 272 272 271 271 270 269 269 269 269 269 269 269 269 268 268 268 268 268 268 268 268 267 267 267 267 267 267 268 268 268 268 268 269 270 271 272 271 270 270 271 272 273 275 276 275 273 272 272 271 271 271 271 272 272 271 271 271 271 272 272 272
271 269 273 269 264 266 268 271 274 266 267 273 274 275 274 274 274 274 273 271 270 271 271 270 270 271 270 270 269 269 267 268 268 268 267 267 267 267 267 267 267 267 267 267 268 267 266 266 265 265 265 265 266 266 266 266 267 268 269 269 269 268 267 268 269 269 271 273 275 275 273 271 271 271 271 271 270 270 271 273 275 273 272 271 274 276
272 273 273 269 268 267 273 275 275 275 274 275 276 275 272 272 272 271 270 270 270 269 269 268 268 268 268 268 268 267 266 267 267 267 266 266 266 267 266 266 265 265 266 266 265 264 264 264 264 264 263 264 264 264 264 264 265 265 266 266 266 266 266 267 267 268 270 272 273 274 273 272 271 271 270 270 270 270 270 270 272 276 277 275 275 276
Wind_Speed
3 7 8 9 12 14 12 14 18 19 13 4 1 5 10 10 11 9 11 12 4 6 12 18 20 19 16 12 15 16 11 13 19 18 17 14 16 17 17 18 19 18 21 23 17 9 10 11 9 9 9 10 10 10 12 14 14 15 17 16 17 15 14 14 13 13 14 14 10 8 11 12 11 11 10 9 9 9 9 9 10 10 9 8 8 8
2 8 8 13 15 13 16 16 12 7 3 6 8 6 13 8 17 12 14 10 4 4 7 6 18 20 19 15 14 12 12 16 19 23 21 19 17 17 19 20 20 20 16 16 16 17 7 7 6 6 7 8 11 11 13 16 17 17 14 15 15 11 14 15 17 16 15 15 17 17 17 15 14 12 13 13 11 11 9 9 9 8 8 8 8 8
5 10 11 15 11 7 5 2 3 7 8 6 9 9 10 11 11 13 13 14 12 3 16 11 19 19 16 14 10 11 17 17 15 19 22 19 17 16 18 20 20 18 19 17 17 18 6 7 7 7 8 10 15 14 16 16 13 13 14 15 13 15 16 16 15 13 15 13 10 10 8 11 8 7 7 6 6 7 8 8 8 8 8 8 8 8
8 5 14 12 8 6 5 2 3 2 3 6 6 5 13 3 3 12 4 7 1 6 6 4 20 18 12 17 18 18 18 17 14 19 21 20 20 21 22 21 18 18 17 20 20 18 8 8 8 7 8 10 8 8 10 11 15 13 14 14 14 15 15 14 15 15 10 8 5 3 4 4 4 5 5 5 6 6 6 9 9 8 9 9 9 9
14 2 6 10 8 7 11 8 5 4 13 8 12 10 9 10 15 13 7 4 5 6 4 15 17 17 11 16 8 11 14 13 14 15 17 19 19 23 18 12 14 18 22 21 20 18 11 5 7 10 10 8 11 11 13 14 15 13 18 17 17 15 15 13 13 13 10 10 8 7 8 7 7 6 6 6 6 8 8 7 9 11 9 10 9 9
12 6 2 3 5 7 7 6 6 8 13 14 8 9 17 18 13 11 11 7 4 6 4 3 10 16 5 11 10 8 3 6 9 12 18 23 22 15 9 16 17 16 17 17 19 21 17 7 5 5 5 8 9 12 12 13 14 12 12 12 12 11 12 13 15 15 13 14 14 13 11 11 8 7 9 12 13 11 13 15 7 6 9 9 9 8
6 3 6 9 8 7 5 6 6 10 14 12 6 14 18 14 10 9 11 4 7 3 4 1 4 20 4 3 6 5 7 11 9 11 19 19 14 9 14 15 16 14 13 10 12 16 16 6 5 6 8 9 11 13 10 9 10 11 11 13 14 13 12 12 13 15 12 12 12 16 17 17 17 16 13 12 12 13 10 8 10 9 8 9 10 8
2 4 4 4 2 4 4 5 11 14 8 10 2 9 7 6 7 9 5 6 8 1 4 1 4 7 24 3 6 9 11 13 14 16 14 13 13 17 18 15 13 13 10 11 14 16 14 5 7 10 11 11 14 12 8 9 8 12 13 14 14 12 12 12 13 16 15 15 15 14 13 12 13 14 13 13 11 9 8 10 9 9 9 9 8 9
5 2 4 3 3 4 8 16 1 12 7 5 1 5 5 6 5 1 4 5 3 4 11 7 2 4 11 6 6 4 7 11 14 15 13 14 15 15 16 13 12 13 14 12 14 16 14 6 7 8 9 12 10 6 9 9 9 9 9 11 11 12 12 13 16 16 16 15 15 16 14 13 11 10 7 6 6 8 9 10 7 8 8 8 8 8
2 1 4 8 7 9 9 1 6 11 7 4 4 6 4 4 3 2 3 3 2 2 15 6 4 5 16 17 4 3 1 9 9 9 12 13 13 14 12 12 13 11 11 13 7 8 10 6 7 7 7 5 7 6 6 6 8 9 10 12 14 14 13 13 16 16 16 15 13 13 13 14 11 8 6 7 7 8 8 10 9 8 8 8 8 7
5 2 6 5 8 6 2 1 4 10 7 2 0 1 4 4 2 3 3 1 2 7 11 14 10 7 11 6 8 6 7 7 6 5 7 7 9 13 12 11 13 12 10 10 8 7 7 6 6 4 6 5 3 5 7 8 9 9 11 12 15 14 11 13 15 16 17 15 15 15 15 16 14 11 10 10 9 8 8 10 10 10 9 8 9 8
4 1 1 5 2 3 1 1 3 0 2 1 2 0 5 7 6 1 3 2 3 10 9 11 14 9 6 7 3 4 7 5 5 4 8 11 11 12 12 10 9 8 7 9 11 11 7 8 5 2 5 4 4 4 7 7 9 11 11 12 14 12 13 13 14 15 16 15 15 13 14 16 14 14 13 15 15 14 14 13 12 9 8 9 9 9
3 9 5 1 3 10 4 3 3 2 1 3 1 2 3 5 6 4 3 1 5 10 4 6 8 1 17 16 5 10 10 7 10 7 9 12 14 12 11 11 10 7 6 7 8 9 9 7 6 5 4 2 4 6 6 7 7 8 9 12 14 13 12 13 13 16 15 14 13 13 12 12 11 13 14 14 13 13 13 12 12 12 12 10 10 12
8 1 1 5 2 5 7 6 2 1 3 7 5 4 4 2 4 7 4 2 5 8 2 5 1 9 13 8 7 12 20 15 8 7 9 7 8 10 13 13 14 14 10 9 10 8 7 8 5 4 4 3 3 2 3 4 6 6 7 10 13 12 12 11 12 13 13 14 13 12 12 11 10 11 11 10 11 12 11 11 13 14 14 14 15 13
7 8 4 4 2 3 9 8 12 8 8 11 4 11 10 8 3 7 3 11 10 8 2 3 4 8 2 4 2 6 6 6 5 5 5 7 7 8 9 10 10 9 9 6 8 8 5 7 6 5 4 3 3 3 4 4 5 7 8 10 11 11 12 13 14 12 15 13 12 11 11 11 10 11 11 11 10 11 12 11 12 12 11 12 12 12
8 8 5 6 0 5 8 7 2 3 2 2 3 3 3 8 6 10 10 9 11 8 2 2 8 4 8 2 8 5 6 9 5 4 4 4 3 5 5 4 7 7 9 7 6 7 6 4 5 5 4 3 3 3 3 5 5 6 7 7 9 11 12 12 13 14 14 13 11 11 13 13 11 9 9 9 9 10 12 13 13 13 13 11 10 9
1 7 1 1 4 6 5 2 3 5 2 1 6 5 12 1 4 5 5 7 5 0 14 6 7 9 5 10 10 8 4 5 1 1 3 5 6 3 5 5 5 6 6 7 8 7 7 6 4 3 4 4 3 4 6 6 7 8 9 10 11 10 10 12 13 13 12 12 12 14 13 12 12 14 15 14 14 13 10 10 11 11 12 9 10 10
8 7 1 2 6 4 2 1 2 4 3 7 1 9 1 1 3 4 6 1 5 10 9 8 16 13 5 12 3 1 2 2 1 4 4 6 4 6 4 4 4 4 4 3 4 5 6 5 5 3 2 2 3 4 4 5 5 6 8 9 11 11 13 13 12 13 13 13 14 13 15 15 15 15 15 14 14 12 11 11 10 9 9 12 10 10
1 9 4 12 4 4 1 1 5 5 3 10 8 1 2 6 6 3 2 5 8 12 6 8 14 15 12 17 12 11 10 13 10 5 5 8 8 7 7 8 7 5 7 6 6 7 6 5 4 4 4 3 4 4 5 4 4 5 6 7 10 14 13 13 12 12 11 12 12 12 15 15 14 13 13 11 10 10 12 13 13 13 12 8 10 11
1 6 4 4 6 1 1 2 11 5 1 0 1 4 1 1 9 8 6 2 2 13 10 11 12 11 7 10 13 14 11 12 10 5 6 9 7 5 6 6 6 7 7 8 9 6 4 5 4 4 5 5 7 7 6 6 5 7 6 6 8 7 6 6 10 10 12 13 12 12 10 11 12 12 12 11 10 11 13 13 11 11 10 13 10 11
3 0 7 3 4 3 4 6 12 9 8 3 2 6 2 3 3 0 2 4 7 10 10 10 12 7 7 7 11 19 9 10 9 6 7 10 9 6 4 5 5 5 5 7 6 7 8 8 5 3 3 4 4 4 5 6 9 8 7 9 9 11 10 11 12 11 14 12 14 13 14 15 14 15 12 9 11 12 12 10 10 11 10 7 11 12
1 2 11 3 7 10 13 5 6 7 8 6 8 7 9 7 8 10 14 4 6 9 11 9 15 5 5 7 17 17 5 6 5 4 10 12 9 9 7 5 5 5 6 6 7 7 7 6 4 3 2 3 4 6 7 6 5 8 11 11 9 8 11 13 13 15 16 13 13 14 15 15 14 13 12 13 13 13 11 11 12 11 9 12 11 12
6 3 3 8 10 15 16 13 7 6 4 4 5 6 7 4 3 6 13 10 9 8 8 12 13 9 5 9 18 13 3 6 6 10 14 12 10 9 10 8 8 7 7 9 9 8 6 5 6 5 4 5 6 7 6 7 9 10 10 9 11 13 15 14 16 14 12 12 13 16 15 12 11 11 13 14 13 14 14 13 12 11 13 12 11 11
3 2 2 12 5 7 10 11 12 5 4 6 5 8 5 11 13 13 12 10 11 8 10 9 13 4 10 11 14 12 13 13 10 9 14 11 9 9 10 10 10 9 9 8 8 8 5 5 5 6 6 6 6 8 9 8 8 9 10 12 10 14 17 13 13 12 11 13 14 15 12 12 11 10 12 13 14 15 15 13 12 11 13 12 11 12
4 2 6 8 5 3 3 6 7 8 3 5 10 10 12 13 13 13 12 6 12 11 14 13 18 6 4 3 7 11 14 16 18 17 11 10 8 8 8 9 9 8 10 13 14 15 14 11 9 7 7 8 9 8 7 7 9 10 12 10 12 15 15 12 11 10 12 14 15 13 13 14 13 14 14 15 14 16 15 14 12 11 13 12 13 13
4 2 2 8 8 10 11 9 8 7 9 4 1 10 11 12 15 11 11 11 17 11 17 16 15 10 8 6 10 12 15 19 21 21 18 11 9 11 7 9 12 13 15 17 18 19 18 16 18 20 19 15 12 11 12 11 9 10 11 13 13 14 13 14 13 13 13 12 13 13 15 15 13 16 18 19 18 18 16 15 13 12 12 13 14 13
2 2 4 9 12 14 13 11 5 7 6 11 7 5 8 10 14 15 12 13 16 14 16 16 16 15 12 10 13 17 18 20 21 22 20 16 14 17 17 15 14 14 15 16 16 16 17 19 19 18 19 18 17 15 11 10 12 12 12 13 10 10 10 9 8 12 13 15 16 15 16 16 17 18 18 19 18 15 13 14 13 14 14 13 14 14
2 5 10 13 16 15 15 16 17 16 18 18 18 19 15 12 8 9 10 17 11 12 18 9 13 13 13 11 16 18 16 14 14 16 20 20 16 12 13 15 17 18 18 17 18 19 18 17 17 17 17 17 17 17 16 13 11 12 13 14 12 8 9 9 8 10 12 13 14 15 16 16 17 17 18 16 13 13 13 13 13 14 13 12 14 15
1 6 8 11 13 13 15 18 16 16 15 16 17 17 19 19 18 20 23 22 18 17 21 17 16 19 16 13 11 14 17 13 13 12 11 13 15 16 17 18 17 17 17 17 16 16 17 17 16 16 16 16 17 18 18 17 17 16 15 12 11 9 9 8 6 10 11 12 13 16 16 15 14 14 13 12 13 13 14 15 15 13 13 13 13 12
1 5 10 10 11 7 10 12 12 15 16 16 15 17 19 21 23 25 26 26 25 23 22 20 20 21 9 13 9 11 13 14 10 10 14 18 16 15 14 14 14 14 15 15 15 14 14 15 15 15 16 17 17 18 18 17 17 17 17 18 17 14 11 5 9 11 11 12 15 16 14 13 11 10 10 12 14 15 15 14 13 13 14 14 13 12
3 5 10 9 11 13 11 13 11 13 14 18 17 17 17 19 21 21 20 19 22 24 23 27 24 21 7 10 11 11 12 11 13 18 15 12 13 13 13 13 13 12 12 13 14 15 15 15 15 16 17 18 18 19 17 17 16 16 17 18 19 18 15 6 10 11 12 15 17 16 12 10 10 10 12 14 12 11 12 13 13 13 13 12 12 13
3 5 4 8 11 10 8 12 12 12 10 13 14 15 18 18 19 15 15 15 17 18 15 14 11 7 11 14 11 8 13 16 14 12 13 13 13 14 14 13 13 13 13 12 13 13 15 15 16 17 17 17 17 17 17 18 18 17 19 20 20 18 16 13 11 12 14 16 15 12 11 11 9 10 12 10 12 12 12 11 12 13 13 13 13 13
3 4 6 8 12 14 16 15 15 13 15 17 19 19 17 16 17 17 12 9 9 5 6 3 3 5 7 9 13 13 13 13 12 8 11 13 13 13 13 14 12 13 14 13 13 14 14 14 13 15 16 15 16 16 17 16 15 16 16 18 18 17 16 14 13 13 13 14 11 11 10 8 10 11 10 11 10 9 9 11 12 13 13 16 14 12
5 6 8 6 11 12 15 17 11 11 15 15 3 5 6 3 7 7 4 6 11 11 8 8 3 4 4 8 11 13 12 11 11 4 6 9 13 15 14 12 11 12 12 12 12 12 13 13 12 12 14 15 15 15 15 14 13 15 14 14 15 15 16 13 12 10 12 11 9 9 7 7 8 10 10 8 8 10 11 12 13 12 10 10 11 13
14 11 11 5 9 12 12 10 12 17 17 1 6 5 3 8 13 12 7 7 6 7 8 7 7 7 7 6 7 9 9 11 9 8 3 10 13 13 14 13 15 15 14 14 15 14 13 13 13 13 13 12 13 14 15 17 16 17 18 17 17 16 15 14 11 10 9 9 8 6 5 5 6 6 5 6 7 9 11 12 10 11 11 12 13 14
11 11 6 4 4 5 4 6 10 14 1 4 4 7 3 5 6 9 6 7 5 5 6 5 5 5 7 8 8 8 9 12 8 7 1 9 9 12 12 13 13 14 15 13 14 14 14 14 14 13 14 13 13 13 12 13 14 15 17 16 14 15 14 12 12 11 8 8 7 5 4 5 5 5 5 6 7 9 10 10 11 12 10 10 9 8
12 8 5 9 6 10 9 12 17 10 8 3 6 6 7 4 6 7 4 3 5 2 4 2 2 4 5 6 9 10 12 11 6 4 4 6 10 8 9 11 12 13 14 13 12 14 13 12 12 14 14 13 12 13 14 14 14 15 15 16 15 14 14 13 14 13 10 8 7 5 4 4 4 5 6 6 8 9 10 11 11 10 9 10 10 11
8 11 4 6 5 8 7 6 7 3 7 1 4 4 7 6 7 6 4 4 6 0 2 3 2 2 3 4 7 9 10 12 15 7 1 4 8 10 10 8 11 11 12 14 13 13 13 12 13 13 12 14 15 14 13 14 14 15 15 16 15 15 15 13 14 13 10 9 7 5 4 4 4 5 6 7 9 9 8 7 7 9 9 12 12 12
1 2 5 6 5 7 10 9 7 7 4 6 5 4 8 8 6 2 5 6 5 3 6 4 4 3 3 3 6 5 10 11 11 11 11 12 11 9 11 12 10 12 12 13 14 15 15 14 14 14 13 14 16 15 15 16 15 14 15 15 15 14 13 13 14 12 11 10 7 5 3 3 3 4 6 7 7 7 8 9 9 7 7 8 8 9
8 5 2 5 7 6 5 8 11 3 4 3 2 6 8 8 6 3 7 4 6 6 4 4 4 3 4 2 3 2 5 10 13 15 13 13 13 12 11 13 15 13 13 13 11 12 14 14 14 14 14 15 16 15 15 14 14 14 14 15 14 14 14 14 13 11 9 7 5 3 2 1 3 3 4 6 5 4 5 4 5 7 8 7 7 8
1 3 2 8 7 9 10 8 5 8 2 0 2 5 8 5 1 9 16 3 6 6 4 4 4 4 4 3 2 4 5 6 11 15 16 13 13 13 9 9 12 13 14 14 13 14 13 13 12 13 14 13 14 15 14 13 13 14 14 13 14 15 14 12 11 10 9 7 5 3 2 1 2 3 2 3 4 4 4 5 6 7 7 7 6 7
1 2 4 1 3 6 6 6 8 6 4 2 5 3 5 3 6 10 2 2 3 6 3 5 5 6 4 4 4 5 7 9 9 11 14 15 12 11 12 13 13 13 12 12 14 14 14 14 14 15 15 13 13 13 12 13 15 15 13 12 14 15 12 10 10 9 8 8 5 3 1 1 1 2 3 4 6 6 5 4 5 6 7 6 7 8
5 2 4 3 3 1 1 4 7 10 2 6 3 12 2 2 7 5 4 4 5 6 5 5 6 8 6 6 7 8 8 9 10 11 12 13 13 13 13 13 13 15 16 16 15 13 13 15 16 15 16 15 13 13 13 14 15 15 13 13 14 13 11 10 9 9 8 7 6 4 2 1 3 4 4 5 6 7 6 5 6 6 7 8 8 9
3 2 2 3 4 9 6 8 6 3 2 5 5 5 5 9 7 7 5 9 4 6 5 6 6 8 5 6 7 7 8 9 11 11 10 11 12 12 12 12 13 13 14 14 14 15 14 14 15 16 16 15 13 13 13 13 15 15 15 16 14 13 13 12 11 9 9 8 7 4 3 3 4 5 5 6 7 7 7 6 6 6 7 8 9 9
5 9 7 8 3 6 6 5 6 5 9 13 12 10 12 13 7 5 6 8 8 5 6 5 9 7 5 6 6 8 10 9 11 9 11 12 11 12 14 13 13 14 14 15 15 13 11 13 17 18 18 16 14 13 13 12 14 18 19 15 14 17 15 13 11 10 10 10 8 6 5 4 5 6 6 7 8 9 8 8 8 8 7 8 8 9
2 3 3 1 7 6 4 9 11 11 13 15 12 11 9 8 7 5 5 6 7 9 6 8 6 6 6 4 6 8 9 10 11 12 11 11 12 14 13 14 14 14 13 13 13 13 12 14 15 17 19 20 17 13 12 12 11 17 19 16 15 16 12 12 13 13 13 11 8 7 5 6 6 6 7 8 7 8 8 10 11 10 9 9 9 10
5 4 2 6 8 4 7 5 9 13 14 14 12 9 6 7 10 5 5 8 11 8 5 4 6 6 6 4 7 8 10 10 11 12 12 11 13 14 15 15 15 14 14 15 14 12 12 12 14 17 19 21 20 14 12 14 13 14 16 16 15 15 14 16 16 15 14 13 10 7 6 8 6 6 6 7 7 7 7 8 9 9 10 10 11 11
8 6 6 11 9 8 13 13 9 11 12 8 8 9 12 14 11 8 10 10 7 3 3 4 3 6 4 7 6 5 9 11 12 12 11 12 13 13 15 15 16 16 16 16 15 13 13 14 15 16 17 19 20 14 13 14 16 16 15 16 15 12 14 17 18 17 17 15 11 8 7 8 9 8 7 8 9 9 9 9 10 11 13 14 15 14
5 5 5 5 7 9 10 10 16 15 10 13 16 14 12 12 12 10 7 5 3 4 5 4 4 5 3 7 5 6 10 14 12 11 11 12 14 14 15 14 15 16 17 17 15 12 14 15 17 17 16 19 18 16 15 17 16 17 16 14 13 13 16 18 19 19 20 17 12 11 8 8 8 8 9 8 9 10 11 13 14 14 11 11 10 12
2 9 10 2 4 8 11 15 11 6 8 9 10 11 6 5 5 6 3 4 4 4 5 6 7 4 4 6 6 7 10 13 14 10 10 13 15 17 17 16 15 16 17 16 12 13 15 15 15 16 18 18 14 14 16 16 18 14 14 11 14 13 17 19 17 18 17 16 12 11 9 8 8 8 9 8 9 9 9 10 14 12 11 11 15 18
11 14 9 8 10 13 16 16 10 10 12 12 15 8 3 1 2 3 4 4 4 2 1 2 7 10 10 9 5 7 10 12 15 12 11 13 16 16 16 16 16 16 17 14 14 17 17 16 16 16 19 19 17 15 17 17 17 17 12 12 13 14 15 17 16 15 14 14 12 12 9 9 9 9 9 9 9 9 9 8 10 19 20 15 14 17
Wind_Direction
130 171 171 189 216 216 219 202 215 225 231 270 171 220 250 253 268 261 267 262 242 310 251 267 267 267 266 254 259 264 267 270 273 267 261 256 261 261 262 259 260 261 257 264 272 250 227 228 221 210 196 199 195 191 184 190 191 188 189 182 190 187 175 172 171 175 171 172 170 173 187 189 182 185 183 187 190 188 189 180 182 182 182 177 174 174
111 212 213 211 216 211 216 219 231 264 326 243 258 263 263 236 267 247 263 263 271 205 266 248 276 274 272 269 259 263 265 253 261 270 267 260 254 259 261 265 263 260 266 270 276 266 225 242 223 199 194 180 186 203 191 194 195 196 189 187 190 171 179 183 182 180 180 182 183 181 186 186 184 179 182 191 188 190 182 181 181 181 179 176 177 173
218 218 223 228 233 236 260 264 210 221 243 247 236 253 271 260 263 272 257 266 259 216 277 267 266 266 270 267 258 241 249 250 242 254 263 267 263 259 260 263 266 268 268 272 266 269 240 223 213 195 198 198 199 194 195 198 191 191 189 194 181 183 182 188 182 176 186 186 185 186 184 183 175 186 181 172 171 162 174 180 179 178 178 175 177 174
273 252 239 238 236 247 271 241 246 270 231 223 238 246 244 269 269 285 206 258 277 196 284 278 287 278 277 266 254 246 247 251 245 247 257 257 261 257 254 252 263 274 275 271 271 276 254 204 207 201 204 204 198 195 198 195 195 193 195 190 186 188 187 182 185 186 179 167 144 101 98 104 104 151 138 129 137 162 161 185 182 185 181 178 178 177
230 218 228 221 218 203 236 235 228 259 264 219 220 235 266 248 238 232 267 345 308 282 260 291 285 278 218 253 251 255 237 251 253 255 261 262 256 253 259 283 268 263 266 271 280 276 267 205 212 206 208 190 200 201 198 195 196 195 196 192 187 182 184 184 178 173 156 138 121 109 91 94 86 82 116 128 163 181 188 180 189 194 178 180 179 175
272 261 120 157 214 214 223 252 215 214 261 257 219 206 236 246 260 258 278 336 348 327 297 270 334 299 201 199 212 240 300 243 244 245 251 256 253 268 288 259 262 255 252 263 271 273 274 240 224 221 209 205 211 212 209 200 201 193 192 184 181 178 178 179 176 169 162 167 161 154 151 159 165 163 170 187 186 183 194 200 172 163 184 179 179 178
239 236 189 215 198 211 201 229 230 182 241 268 261 199 231 244 247 266 277 355 285 254 320 37 197 290 139 156 221 248 246 252 258 235 243 251 269 274 259 260 257 262 275 266 261 272 278 263 230 223 211 210 214 221 206 198 196 191 182 181 180 179 178 174 172 169 167 168 175 178 179 177 179 183 197 194 191 189 186 162 175 179 173 182 179 180
176 274 241 263 178 171 175 260 235 185 225 263 228 195 217 234 236 243 232 204 256 261 267 175 176 245 295 213 210 216 245 254 254 252 257 268 267 265 260 262 268 270 263 267 272 273 268 247 218 233 217 211 217 214 190 192 184 185 180 175 178 176 176 175 170 173 177 175 179 182 186 187 191 193 189 184 186 172 163 172 172 169 179 178 182 175
164 232 173 212 186 159 205 222 116 163 179 224 307 149 209 210 226 143 178 204 233 18 291 177 98 296 262 275 204 189 232 263 261 265 268 265 264 263 272 274 269 264 264 258 258 264 280 264 235 232 228 222 221 196 189 185 184 176 170 172 171 175 174 176 175 176 181 182 181 184 184 189 198 193 178 156 142 157 163 168 162 170 173 176 179 176
288 168 208 176 150 218 225 253 163 169 204 277 121 88 75 78 78 148 177 197 317 32 276 171 166 228 279 291 181 359 189 263 258 249 255 259 263 271 278 276 275 276 270 269 270 282 292 276 249 236 247 240 218 196 176 170 161 167 165 171 174 179 178 176 178 180 182 183 180 186 190 189 184 169 128 145 154 156 165 175 174 171 169 176 175 176
230 334 155 126 207 220 171 224 172 192 199 97 122 324 356 27 18 22 72 92 34 268 262 162 191 178 284 283 176 128 218 209 247 303 281 279 284 281 274 266 272 277 287 292 297 289 275 276 276 270 242 236 198 179 168 165 166 163 169 173 178 181 175 177 180 179 184 185 186 190 188 188 181 171 156 157 164 155 165 178 177 177 178 172 180 172
248 169 198 251 119 96 120 151 28 227 226 329 308 147 19 313 13 33 341 53 189 265 263 178 178 182 215 295 335 248 280 267 211 230 293 297 286 277 282 285 274 278 296 318 324 314 303 307 293 291 242 209 192 176 177 170 164 167 170 171 175 175 179 177 180 184 188 190 192 194 189 189 185 173 175 177 177 176 177 177 177 174 165 181 179 180
283 217 234 353 231 175 183 201 306 28 62 147 114 338 293 282 17 322 32 323 193 228 257 184 157 355 239 251 322 316 289 263 235 246 273 271 278 282 283 297 316 330 321 307 296 295 301 281 280 273 269 236 199 195 185 175 166 163 166 172 174 182 177 179 180 188 190 191 194 192 192 195 186 186 186 185 180 179 179 179 175 172 184 176 181 192
275 243 74 225 35 208 132 164 249 293 213 131 155 154 104 279 247 256 267 237 297 285 288 176 185 240 268 300 216 233 252 260 272 236 253 287 293 302 301 303 305 304 298 291 289 285 274 288 286 280 279 264 260 225 191 171 164 167 170 175 181 181 178 178 184 189 191 198 195 193 194 192 186 191 186 189 186 185 186 181 183 185 186 185 194 185
316 302 275 143 253 174 179 188 195 196 165 197 145 153 183 186 185 267 192 257 253 247 323 287 130 228 301 233 259 252 298 312 288 306 269 247 253 256 271 280 283 301 312 301 293 297 309 309 303 283 257 252 243 212 187 178 176 169 175 180 183 178 185 182 187 186 194 196 195 196 197 194 192 190 187 193 192 184 186 188 189 192 188 192 193 190
206 234 246 200 284 148 176 229 204 87 29 236 156 82 62 234 169 234 227 243 267 283 333 220 214 191 234 277 300 239 286 290 307 298 347 303 293 291 285 346 324 317 317 325 313 309 303 282 289 293 290 262 225 206 205 192 182 178 181 184 191 189 187 189 189 195 194 194 193 196 196 197 192 193 193 195 195 195 192 190 190 191 192 194 181 180
222 257 234 309 82 172 207 143 217 129 241 234 98 187 219 154 145 264 303 248 258 295 250 232 293 273 291 290 270 298 320 278 3 345 320 296 273 248 11 333 327 325 320 315 314 307 301 306 305 286 293 284 255 214 200 200 195 188 182 183 190 192 191 196 198 194 193 193 194 201 199 194 195 195 196 198 196 194 190 189 195 193 194 180 179 179
243 262 293 169 268 263 203 254 297 230 143 92 189 237 40 139 129 176 232 290 218 239 244 220 255 272 328 280 309 349 349 285 309 255 240 246 296 15 317 324 291 288 286 273 277 269 268 275 282 282 260 254 269 279 267 231 209 203 194 188 189 194 197 201 195 195 195 196 201 202 202 202 201 200 202 200 196 188 183 193 193 189 179 192 182 170
97 288 254 270 238 262 13 112 316 266 186 226 233 33 200 256 268 250 99 238 230 238 263 206 242 259 252 264 274 268 273 278 264 260 311 314 326 337 332 338 334 334 346 2 351 341 322 295 274 258 247 232 224 226 228 242 245 233 216 203 199 202 203 197 197 200 202 200 202 203 204 202 203 206 207 205 193 185 191 194 193 191 192 168 171 173
308 255 302 294 294 293 28 80 267 261 311 277 21 300 249 107 252 239 191 217 214 260 253 244 207 238 212 247 252 269 236 239 246 264 278 287 285 278 309 321 327 331 327 325 315 309 290 284 264 250 237 231 220 215 212 208 210 225 229 221 220 219 208 202 207 205 209 209 207 208 204 209 209 210 206 201 192 195 201 200 193 190 182 186 170 175
245 295 274 245 333 51 287 183 235 228 243 243 211 250 267 232 211 329 307 214 227 254 240 260 243 220 219 248 255 258 241 240 211 220 279 288 298 303 272 287 300 301 304 306 296 294 305 307 321 307 270 266 271 248 227 215 210 207 208 222 218 211 205 207 208 203 215 205 211 205 205 205 202 207 203 200 201 202 202 197 193 193 191 156 180 173
339 179 245 221 248 248 252 211 200 193 184 179 183 208 217 233 274 262 258 206 243 237 250 250 254 213 233 238 260 260 228 237 231 234 280 291 306 310 311 278 262 283 290 273 283 283 286 291 296 309 283 253 244 245 237 233 225 219 215 214 215 218 216 212 208 209 211 208 211 209 213 209 207 203 193 198 199 204 201 199 195 188 170 185 183 175
195 174 189 220 216 236 250 251 216 197 207 222 178 246 219 233 214 236 260 241 261 242 259 252 274 239 190 225 252 266 216 215 251 276 281 291 302 305 301 292 284 256 258 279 282 282 275 288 301 301 275 247 236 245 240 227 220 224 225 217 215 210 223 215 215 212 209 209 210 214 214 211 209 201 201 202 202 203 201 199 192 180 184 185 179 181
162 201 203 260 271 286 283 282 279 216 245 314 276 239 231 234 221 233 238 240 249 264 263 260 246 267 177 214 258 287 289 284 268 262 274 281 280 279 280 285 285 286 272 260 266 278 322 320 319 317 298 278 260 247 240 230 232 234 227 220 214 221 228 219 223 219 216 216 217 214 204 207 206 202 207 207 208 206 205 199 193 183 185 182 175 180
279 251 231 286 273 296 283 309 284 274 176 196 244 241 226 239 250 255 265 283 270 236 256 263 260 236 288 292 276 282 285 286 285 283 278 287 280 265 262 268 276 299 329 343 353 356 1 355 340 308 290 286 288 285 263 241 234 230 231 217 217 225 229 223 222 218 223 222 224 215 207 207 197 199 202 208 209 212 205 199 192 187 185 177 182 182
289 257 217 254 262 266 267 250 261 275 254 245 236 248 246 237 241 256 261 249 253 238 234 245 258 247 257 279 285 281 287 290 290 288 292 291 293 301 331 353 4 18 20 17 11 11 9 4 3 0 354 345 330 311 305 292 269 251 239 230 218 224 226 219 214 212 217 219 222 221 215 211 201 204 204 207 209 208 202 199 191 185 188 184 182 179
218 293 220 242 250 257 260 272 275 305 315 283 269 238 260 253 249 242 254 258 254 258 246 245 254 266 259 277 273 275 275 278 285 295 302 319 359 21 33 35 29 24 19 14 10 6 7 7 2 358 359 356 352 343 327 313 306 301 293 287 275 258 247 237 219 218 216 216 216 217 215 209 206 207 208 208 207 202 196 196 192 186 189 185 184 180
130 229 236 248 250 257 266 274 275 271 272 275 279 275 270 262 252 254 238 252 273 286 263 251 257 264 264 264 265 267 272 287 314 345 9 29 32 27 28 28 23 20 13 9 8 6 1 355 355 356 353 352 349 343 344 333 310 290 281 276 271 253 250 251 237 235 230 227 225 223 219 213 211 210 211 209 202 196 195 191 189 192 188 180 183 185
182 252 268 259 258 252 260 266 272 276 272 275 272 278 276 275 275 268 264 262 258 253 266 268 272 271 265 268 314 354 9 18 31 38 39 31 29 23 21 24 21 15 9 8 3 360 357 353 348 346 346 345 344 344 341 338 335 331 319 297 283 271 257 245 235 240 239 238 235 232 226 220 216 216 210 199 195 196 193 192 192 187 181 185 187 184
198 237 250 253 276 277 280 274 273 268 271 269 267 262 262 266 266 264 263 264 267 269 270 276 273 271 310 3 15 16 359 14 19 31 33 30 20 21 19 18 20 14 8 3 358 354 351 347 345 343 341 342 343 341 338 336 333 331 327 324 320 310 286 246 239 239 237 234 235 236 233 229 224 215 204 198 199 198 194 190 185 183 185 186 184 179
206 279 1 328 310 292 285 280 275 268 267 272 272 272 270 267 266 267 275 283 281 274 273 268 266 267 40 342 7 1 5 2 24 32 30 25 18 18 17 12 9 7 5 359 353 350 345 344 343 343 343 341 340 337 335 331 329 328 329 330 327 320 310 273 250 244 236 237 236 235 231 226 223 208 205 206 200 196 189 187 183 183 182 180 178 178
15 289 320 291 295 274 278 278 281 286 282 278 282 277 272 268 271 269 265 255 260 277 294 308 307 355 337 351 337 8 7 8 8 24 24 20 14 12 12 3 1 356 357 351 348 345 342 341 341 341 338 335 333 333 333 331 329 330 331 330 326 319 312 294 264 256 248 243 244 237 227 219 214 208 212 198 201 195 192 181 177 180 181 177 177 178
239 286 291 297 283 274 281 283 293 302 302 286 269 273 277 268 263 266 275 348 355 321 275 257 86 343 352 335 354 357 12 349 355 357 22 18 16 12 3 356 353 345 348 342 341 339 338 336 333 332 331 331 329 328 325 323 323 326 327 324 318 315 312 301 280 266 261 256 250 244 231 215 206 211 207 203 193 182 177 181 181 180 178 183 181 167
246 233 259 246 263 285 290 290 307 303 272 264 4 30 71 54 40 41 15 360 4 37 65 82 70 358 339 353 359 349 354 346 323 314 47 27 8 359 354 345 345 337 333 331 331 332 329 328 327 326 324 321 320 320 318 320 321 321 321 318 319 322 319 313 295 275 269 271 263 251 235 219 210 210 207 191 179 173 176 179 188 184 178 168 167 178
257 261 257 240 258 269 278 296 292 262 261 353 90 56 103 103 90 98 86 39 23 42 57 53 37 14 360 351 343 335 330 318 316 289 342 13 13 358 342 338 336 338 331 329 329 328 327 323 322 321 320 320 320 320 324 326 331 331 329 331 329 328 327 320 306 293 282 279 272 257 237 221 214 214 194 183 178 177 181 181 178 177 179 177 179 179
242 250 265 249 242 271 253 233 249 257 214 141 103 48 350 143 94 131 112 68 39 52 58 43 19 351 341 337 334 329 310 313 289 266 138 21 13 348 335 331 327 326 325 323 322 321 322 323 321 320 317 316 318 320 321 320 325 329 324 324 326 327 327 325 316 305 302 291 284 266 245 216 211 196 179 177 178 183 186 183 182 179 175 173 176 177
232 251 237 269 232 257 241 245 249 278 261 184 9 0 22 17 323 349 305 103 93 137 105 360 345 342 338 324 329 326 320 313 303 259 87 14 345 336 323 310 313 312 313 316 317 317 316 314 317 319 319 319 319 321 323 326 327 327 326 328 329 331 329 332 329 325 320 306 300 283 256 222 202 191 182 181 184 191 188 181 180 177 170 172 177 176
194 215 244 260 271 246 264 292 290 259 246 138 227 240 266 227 248 229 225 245 132 306 168 141 300 310 298 304 324 320 329 338 332 318 167 339 329 325 308 298 302 308 312 315 317 314 318 319 319 319 322 322 323 324 324 327 327 328 330 331 332 334 331 335 332 326 322 314 308 286 265 232 200 195 186 185 194 192 192 185 181 178 174 177 176 181
162 188 220 240 264 308 289 275 274 281 293 127 253 245 250 259 273 226 184 225 142 152 221 145 227 248 268 301 315 329 350 336 309 305 324 330 323 319 312 310 317 315 317 319 320 320 321 323 321 322 324 326 323 326 330 328 329 332 332 333 333 330 331 334 330 327 322 314 307 289 271 245 219 205 191 194 196 187 184 183 183 172 169 178 176 178
354 315 348 256 256 234 251 265 269 270 276 172 177 244 238 277 248 178 275 265 129 207 195 191 223 252 254 246 271 20 337 318 313 307 316 318 315 317 318 322 322 322 317 316 314 314 315 315 320 321 325 325 323 327 328 327 329 333 332 331 331 330 332 332 322 311 307 308 314 309 282 247 227 217 198 192 174 173 181 165 157 167 171 173 170 168
186 299 212 239 238 258 261 270 282 267 253 186 281 272 293 283 89 291 270 299 331 309 229 187 229 241 234 274 268 314 273 245 272 287 299 307 311 309 312 313 309 312 313 313 314 316 314 314 316 317 318 322 323 326 326 328 329 328 328 327 328 327 327 321 312 309 309 310 317 321 303 287 224 205 188 167 160 151 146 162 167 162 167 162 155 156
289 168 298 195 206 224 235 237 250 276 244 148 276 219 262 16 292 264 238 156 246 276 204 185 224 242 220 237 250 238 265 279 279 283 292 298 301 302 309 311 310 308 303 304 308 314 315 315 317 316 317 320 324 320 325 329 325 320 322 323 321 320 319 317 311 308 309 309 308 309 295 261 175 148 153 139 142 149 160 159 155 164 161 155 153 160
226 279 234 224 241 32 178 271 277 266 250 99 341 341 52 90 226 304 290 277 215 230 214 224 219 246 224 246 243 256 272 279 277 280 286 292 299 306 308 308 308 308 310 312 310 310 315 315 316 316 315 318 320 322 322 326 318 315 319 317 314 316 317 312 307 304 301 298 294 286 253 199 167 169 156 160 159 158 162 158 160 167 162 159 158 162
255 279 257 256 195 259 227 234 222 205 241 300 348 258 273 263 272 275 280 287 248 200 225 228 237 232 230 238 262 271 268 275 284 284 286 287 292 298 300 300 301 302 301 301 303 309 317 313 310 312 312 312 315 318 321 322 318 314 317 313 320 316 312 308 300 294 290 284 274 267 237 200 181 172 176 170 162 158 155 163 171 173 178 171 167 167
214 194 198 232 240 187 205 244 256 304 313 299 285 274 265 271 265 231 240 252 270 247 213 220 244 248 230 246 258 269 283 273 274 285 289 289 294 295 295 297 296 296 297 300 301 305 310 309 310 311 307 307 311 315 316 319 317 316 310 313 322 315 306 304 302 293 283 276 266 248 240 217 200 185 182 180 169 169 164 167 169 175 187 175 181 178
288 189 224 92 247 255 251 247 276 280 267 272 268 254 262 275 274 250 235 255 241 244 199 214 240 256 260 239 257 267 262 278 289 290 288 290 293 290 289 293 295 294 295 295 297 306 311 311 307 304 304 306 308 312 312 311 315 309 304 312 315 305 308 315 309 299 285 276 260 247 221 216 220 203 190 183 186 184 179 174 179 181 181 185 189 188
247 217 173 224 260 265 273 242 226 246 254 249 258 277 261 245 265 248 226 235 253 243 227 230 241 255 256 264 247 260 275 280 283 283 287 290 284 285 287 289 291 293 296 296 296 307 309 306 303 302 303 304 303 309 309 307 306 299 302 305 305 308 323 321 312 300 290 279 267 249 222 222 215 208 206 193 188 186 182 185 185 186 186 190 189 189
281 180 194 235 246 213 250 254 250 231 240 261 263 269 273 272 262 240 231 243 246 237 214 224 217 252 260 268 261 276 278 279 279 279 283 282 281 283 285 287 290 295 293 292 296 303 303 300 298 298 300 298 297 307 309 303 301 300 300 300 302 312 315 309 303 298 291 282 273 253 230 229 220 206 203 204 195 189 189 194 193 194 196 190 192 187
220 90 217 181 210 243 271 278 263 268 284 276 270 262 255 253 263 263 238 234 244 267 274 270 229 247 256 263 289 286 282 278 273 273 274 279 280 278 278 284 287 287 289 291 293 299 295 301 300 297 297 292 295 304 303 299 297 296 295 299 308 317 310 300 296 294 289 284 272 259 237 230 221 212 210 204 206 213 202 190 192 203 211 215 202 198
126 239 240 184 269 254 247 252 248 265 272 266 261 265 261 255 243 246 178 231 252 266 270 274 282 258 250 267 269 267 265 275 280 279 278 277 279 283 288 290 289 288 286 283 289 290 292 290 290 293 293 289 293 299 295 294 291 289 294 308 310 309 300 295 293 288 282 280 273 262 245 231 229 220 217 212 209 209 223 229 218 208 204 208 208 214
212 232 234 229 230 248 246 250 252 249 261 263 269 296 80 113 133 183 225 243 266 244 259 290 293 299 285 268 232 244 262 272 280 287 283 278 280 283 285 289 290 289 288 296 302 298 295 292 291 292 289 289 295 292 291 289 288 288 295 308 299 298 291 287 286 281 279 278 274 266 250 236 232 224 217 216 214 212 212 212 222 224 222 216 208 210